FDB1025 VRMM-VCBI

Flight info

Callsign FDB1025
Flight time N/A
Altitude 35000
Route HOKEY1B HOKEY DCT TELIG LALUM1A
Aircraft B738/M-SDGIJ1LRWY/SB1

Departure

Time N/A
Airport Velana International Airport (VRMM)

Arrival

Time 2026-05-05 07:20
Airport Bandaranaike International Colombo Airport (VCBI)
Time Latitude Longitude Altitude Speed Heading
2026-05-05 06:52 7.01061 79.36287 15722 ft 367 kts 52°
2026-05-05 06:52 7.02649 79.38245 15334 ft 361 kts 52°
2026-05-05 06:53 7.04236 79.40179 14891 ft 357 kts 52°
2026-05-05 06:53 7.05846 79.42097 14442 ft 354 kts 51°
2026-05-05 06:53 7.07440 79.43955 14014 ft 350 kts 51°
2026-05-05 06:53 7.09035 79.45785 13863 ft 342 kts 50°
2026-05-05 06:54 7.10609 79.47579 13617 ft 344 kts 50°
2026-05-05 06:54 7.12180 79.49367 13261 ft 337 kts 50°
2026-05-05 06:54 7.13728 79.51126 12896 ft 332 kts 50°
2026-05-05 06:54 7.15261 79.52871 12494 ft 328 kts 50°
2026-05-05 06:55 7.16742 79.54555 12340 ft 316 kts 50°
2026-05-05 06:55 7.18175 79.56184 12207 ft 303 kts 50°
2026-05-05 06:55 7.19530 79.57729 12042 ft 294 kts 50°
2026-05-05 06:55 7.20892 79.59286 11401 ft 302 kts 50°
2026-05-05 06:56 7.22308 79.60905 10602 ft 311 kts 50°
2026-05-05 06:56 7.23747 79.62545 9901 ft 319 kts 49°
2026-05-05 06:56 7.25232 79.64232 9426 ft 317 kts 49°
2026-05-05 06:56 7.26671 79.65871 8983 ft 315 kts 49°
2026-05-05 06:57 7.28095 79.67493 8818 ft 297 kts 49°
2026-05-05 06:57 7.29434 79.69019 8654 ft 281 kts 49°
2026-05-05 06:57 7.30692 79.70451 8456 ft 269 kts 49°
2026-05-05 06:57 7.31930 79.71859 8095 ft 265 kts 49°
2026-05-05 06:58 7.33144 79.73243 7578 ft 266 kts 48°
2026-05-05 06:58 7.34374 79.74644 7105 ft 266 kts 49°
2026-05-05 06:58 7.35583 79.76025 6636 ft 265 kts 48°
2026-05-05 06:58 7.36808 79.77414 6284 ft 261 kts 47°
2026-05-05 06:59 7.38003 79.78777 5837 ft 260 kts 47°
2026-05-05 06:59 7.39197 79.80149 5320 ft 262 kts 49°
2026-05-05 06:59 7.40229 79.81677 4837 ft 265 kts 64°
2026-05-05 06:59 7.40566 79.83460 4487 ft 262 kts 96°
2026-05-05 07:00 7.40006 79.85195 4187 ft 259 kts 120°
2026-05-05 07:00 7.39014 79.86675 3877 ft 254 kts 126°
2026-05-05 07:00 7.37986 79.88104 3538 ft 250 kts 126°
2026-05-05 07:00 7.36994 79.89511 3358 ft 240 kts 126°
2026-05-05 07:01 7.36042 79.90865 3199 ft 233 kts 126°
2026-05-05 07:01 7.35115 79.92155 3030 ft 226 kts 127°
2026-05-05 07:01 7.34165 79.93387 2836 ft 219 kts 129°
2026-05-05 07:01 7.33235 79.94575 2620 ft 212 kts 128°
2026-05-05 07:02 7.32327 79.95709 2498 ft 201 kts 134°
2026-05-05 07:02 7.31200 79.96496 2482 ft 194 kts 163°
2026-05-05 07:02 7.29883 79.96623 2497 ft 192 kts 188°
2026-05-05 07:02 7.28615 79.96159 2221 ft 191 kts 217°
2026-05-05 07:03 7.27596 79.95394 1980 ft 176 kts 217°
2026-05-05 07:03 7.26620 79.94726 1736 ft 162 kts 218°
2026-05-05 07:03 7.25732 79.94080 1558 ft 157 kts 219°
2026-05-05 07:03 7.24846 79.93413 1346 ft 158 kts 218°
2026-05-05 07:04 7.23947 79.92788 1135 ft 158 kts 217°
2026-05-05 07:04 7.23062 79.92148 940 ft 156 kts 218°
2026-05-05 07:04 7.22210 79.91492 723 ft 149 kts 218°
2026-05-05 07:04 7.21395 79.90885 575 ft 144 kts 219°
2026-05-05 07:05 7.20540 79.90219 413 ft 161 kts 220°
2026-05-05 07:05 7.19632 79.89524 883 ft 170 kts 218°
2026-05-05 07:05 7.18640 79.88762 1331 ft 189 kts 219°
2026-05-05 07:05 7.17539 79.87907 1816 ft 209 kts 220°
2026-05-05 07:06 7.16319 79.86955 2010 ft 232 kts 220°
2026-05-05 07:06 7.15000 79.85947 1999 ft 240 kts 219°
2026-05-05 07:06 7.13657 79.84924 1986 ft 240 kts 219°
2026-05-05 07:06 7.12335 79.83912 1990 ft 241 kts 219°
2026-05-05 07:07 7.10990 79.82883 1985 ft 241 kts 219°
2026-05-05 07:07 7.09655 79.81861 1983 ft 243 kts 219°
2026-05-05 07:07 7.08268 79.80790 2147 ft 261 kts 219°
2026-05-05 07:07 7.06842 79.79690 2974 ft 256 kts 220°
2026-05-05 07:08 7.05547 79.78497 3390 ft 253 kts 235°
2026-05-05 07:08 7.04875 79.76918 3627 ft 246 kts 264°
2026-05-05 07:08 7.05077 79.75221 3875 ft 245 kts 291°
2026-05-05 07:08 7.05792 79.73656 3977 ft 249 kts 298°
2026-05-05 07:09 7.06580 79.72141 3979 ft 244 kts 298°
2026-05-05 07:09 7.07385 79.70605 3976 ft 244 kts 298°
2026-05-05 07:09 7.08306 79.69185 3970 ft 242 kts 315°
2026-05-05 07:09 7.09753 79.68303 3959 ft 244 kts 344°
2026-05-05 07:10 7.11448 79.68276 3971 ft 247 kts 14°
2026-05-05 07:10 7.12966 79.69067 3973 ft 249 kts 35°
2026-05-05 07:10 7.14316 79.70167 3964 ft 250 kts 39°
2026-05-05 07:10 7.15650 79.71287 3974 ft 250 kts 38°
2026-05-05 07:11 7.17003 79.72421 3977 ft 249 kts 38°
2026-05-05 07:11 7.18333 79.73533 3976 ft 248 kts 39°
2026-05-05 07:11 7.19655 79.74632 3978 ft 245 kts 38°
2026-05-05 07:11 7.20972 79.75731 3975 ft 247 kts 38°
2026-05-05 07:12 7.22302 79.76834 3978 ft 247 kts 38°
2026-05-05 07:12 7.23645 79.77953 3967 ft 248 kts 38°
2026-05-05 07:12 7.24935 79.79028 3959 ft 238 kts 38°
2026-05-05 07:12 7.26225 79.80104 3974 ft 239 kts 38°
2026-05-05 07:13 7.27512 79.81166 3978 ft 238 kts 38°
2026-05-05 07:13 7.28800 79.82232 3989 ft 239 kts 38°
2026-05-05 07:13 7.30090 79.83304 3983 ft 240 kts 37°
2026-05-05 07:13 7.31389 79.84383 3956 ft 241 kts 38°
2026-05-05 07:14 7.32668 79.85455 3825 ft 241 kts 38°
2026-05-05 07:14 7.33965 79.86547 3683 ft 240 kts 38°
2026-05-05 07:14 7.35133 79.87746 3541 ft 242 kts 57°
2026-05-05 07:14 7.35653 79.89329 3399 ft 238 kts 87°
2026-05-05 07:15 7.35302 79.90897 3245 ft 229 kts 119°
2026-05-05 07:15 7.34397 79.92196 3042 ft 221 kts 128°
2026-05-05 07:15 7.33459 79.93399 2787 ft 216 kts 128°
2026-05-05 07:15 7.32550 79.94581 2507 ft 211 kts 128°
2026-05-05 07:16 7.31668 79.95734 2227 ft 208 kts 128°
2026-05-05 07:16 7.30796 79.96878 2010 ft 201 kts 129°
2026-05-05 07:16 7.29762 79.97764 1860 ft 192 kts 160°
2026-05-05 07:16 7.28468 79.97835 1761 ft 190 kts 203°
2026-05-05 07:17 7.27509 79.97002 1667 ft 179 kts 239°
2026-05-05 07:17 7.26844 79.95951 1601 ft 172 kts 236°
2026-05-05 07:17 7.26121 79.95036 1598 ft 168 kts 228°
2026-05-05 07:17 7.25261 79.94231 1545 ft 163 kts 224°
2026-05-05 07:18 7.24415 79.93482 1277 ft 160 kts 223°
2026-05-05 07:18 7.23570 79.92786 1094 ft 155 kts 220°
2026-05-05 07:18 7.22721 79.92084 878 ft 159 kts 223°
2026-05-05 07:18 7.21894 79.91359 725 ft 158 kts 221°
2026-05-05 07:19 7.21052 79.90648 504 ft 158 kts 220°
2026-05-05 07:19 7.20191 79.89970 288 ft 156 kts 219°
2026-05-05 07:19 7.19325 79.89301 102 ft 154 kts 218°
2026-05-05 07:19 7.18511 79.88680 43 ft 125 kts 218°
2026-05-05 07:20 7.18001 79.88287 40 ft 60 kts 217°
2026-05-05 07:20 7.17728 79.88077 39 ft 41 kts 219°
2026-05-05 07:20 7.17519 79.87908 40 ft 24 kts 214°
2026-05-05 07:20 7.17483 79.87920 40 ft 3 kts 116°
2026-05-05 07:21 7.17473 79.87941 40 ft 3 kts 116°
2026-05-05 07:21 7.17466 79.87961 40 ft 2 kts 107°
2026-05-05 07:21 7.17460 79.87981 40 ft 4 kts 107°
2026-05-05 07:21 7.17444 79.88016 41 ft 4 kts 130°
2026-05-05 07:22 7.17413 79.88043 41 ft 8 kts 154°
2026-05-05 07:22 7.17346 79.88009 40 ft 14 kts 217°
2026-05-05 07:22 7.17254 79.87942 40 ft 16 kts 215°
2026-05-05 07:22 7.17169 79.87884 40 ft 12 kts 190°
2026-05-05 07:23 7.17105 79.87931 40 ft 11 kts 127°
2026-05-05 07:23 7.17051 79.88001 42 ft 13 kts 127°
2026-05-05 07:23 7.17019 79.88044 44 ft 4 kts 126°
2026-05-05 07:23 7.16998 79.88071 45 ft 5 kts 127°
2026-05-05 07:24 7.16988 79.88089 45 ft 2 kts 96°
2026-05-05 07:24 7.16997 79.88106 45 ft 2 kts 47°
2026-05-05 07:24 7.17005 79.88112 45 ft 0 kts 41°